Simultaneous Nadir Overpasses (SNOs) Predictions

Prediction of SNOs between AQUA and METOP-A Satellite Orbit:

Table of predicted SNOs for the next 14.0 days since TLE Epoch: 1/17/2014
Index Date (AQUA) Time (AQUA) Lat,Lon (AQUA) SZA (AQUA ) Date (METOP-A) Time (METOP-A) Lat,Lon (METOP-A) SZA (METOP-A ) Distance(km) Time Diff (sec)
1 01/18/2014 17:53:22 -73.85, 85.84 85.63 01/18/2014 17:52:22 -73.83, 85.80 85.64 3.13 60
2 01/18/2014 18:42:51 73.93,-106.68 94.45 01/18/2014 18:43:00 73.94,-106.60 94.45 2.94 9
3 01/18/2014 19:32:24 -74.31, 60.08 85.15 01/18/2014 19:33:33 -74.35, 61.74 85.19 50.17 69
4 01/21/2014 13:27:41 -73.88, 152.21 86.20 01/21/2014 13:26:42 -73.86, 152.29 86.21 3.39 59
5 01/21/2014 14:17:09 73.91, -40.21 93.83 01/21/2014 14:17:21 73.92, -40.23 93.84 1.77 12
6 01/21/2014 15:06:44 -74.39, 126.32 85.66 01/21/2014 15:07:53 -74.38, 128.24 85.76 57.63 69
7 01/24/2014 09:01:57 -73.84,-141.27 86.89 01/24/2014 09:01:02 -73.84,-141.34 86.88 2.33 55
8 01/24/2014 09:51:26 73.92, 26.19 93.19 01/24/2014 09:51:40 73.95, 26.24 93.22 3.28 14
9 01/24/2014 10:41:03 -74.50,-167.53 86.19 01/24/2014 10:42:10 -74.51,-165.02 86.29 74.48 67
10 01/27/2014 04:36:15 -73.89, -74.94 87.54 01/27/2014 04:35:22 -73.87, -74.88 87.55 2.97 53
11 01/27/2014 05:25:43 73.92, 92.63 92.49 01/27/2014 05:26:01 73.92, 92.58 92.49 1.57 18
12 01/27/2014 06:15:23 -74.65,-101.46 86.72 01/27/2014 06:16:28 -74.63, -98.29 86.88 93.22 65
13 01/30/2014 00:10:31 -73.86, -8.45 88.30 01/30/2014 00:09:42 -73.88, -8.43 88.27 2.25 49
14 01/30/2014 01:00:00 73.95, 159.00 91.79 01/30/2014 01:00:21 73.93, 159.02 91.76 2.33 21




NCC Satellite Simultaneous Nadir Overpasses (SNOs) Prediction Service
